Regional Weather Roundup
Issued by NWS

Home | Current Version | Previous Version | Text Only | Print | Product List | Glossary On
Versions: 1 2 3 4 5 6 7 8 9 10 11 12 13 14 15 16 17 18 19 20 21 22 23 24 25 26 27 28 29 30 31 32 33 34 35 36 37 38 39 40 41 42 43 44 45 46 47 48 49 50
000
ASUS45 KBOU 060907
RWRCO

WEATHER ROUNDUP FOR COLORADO
NATIONAL WEATHER SERVICE DENVER/BOULDER CO
300 AM MDT FRI MAY 06 2016

NOTE: "FAIR" INDICATES FEW OR NO CLOUDS BELOW 12000 FEET WITH NO
SIGNIFICANT WEATHER AND/OR OBSTRUCTIONS TO VISIBILITY.

COZ001>005-013-030-031-061000-
...NORTHWEST COLORADO...

CITY           SKY/WX    TMP DP  RH WIND       PRES   REMARKS
CRAIG          FAIR      43  34  70 W5        30.00R
HAYDEN         FAIR      52  28  40 S8        30.01R
MEEKER         FAIR      44  32  62 NE3       30.01S
MOUNT WERNER   NOT AVBL
STEAMBOAT SPGS FAIR      45  32  60 NW5       30.03S
WALDEN         FAIR      41  30  65 SE5       30.14F
$$

COZ006>008-011-061000-
...WEST CENTRAL VALLEYS...

CITY           SKY/WX    TMP DP  RH WIND       PRES   REMARKS
GRAND JUNCTION MOCLDY    61  39  44 E13       29.89S
MONTROSE       MOCLDY    64  30  27 E13       29.97F
EAGLE          FAIR      46  30  53 CALM      30.06S
RIFLE          FAIR      47  35  63 E6        29.96S
DELTA          NOT AVBL
NUCLA          NOT AVBL
$$

COZ017>023-064>068-061000-
...SOUTHWEST COLORADO...

CITY           SKY/WX    TMP DP  RH WIND       PRES   REMARKS
DURANGO        CLOUDY    60  27  28 SE14      30.03S
CORTEZ         MOCLDY    69  29  22 SE31G39   29.95R
PAGOSA SPRINGS CLOUDY    51  30  44 CALM      30.13F
TELLURIDE      MOCLDY    51  32  48 SE14G22   30.14F
WOLF CREEK PAS CLOUDY    37  23  56 SW21G28   30.36F
$$

COZ009-010-012-014-032>034-037-058>063-061000-
...CENTRAL COLORADO...

CITY           SKY/WX    TMP DP  RH WIND       PRES   REMARKS
ASPEN          FAIR      45  29  53 S8        30.08F
BUENA VISTA    FAIR      42  32  68 CALM      30.17S
COPPER MTN     NOT AVBL
BERTHOUD PASS  FAIR      36  27  69 SE7       30.39F
COTTONWOOD PAS FAIR      50  23  34 CALM      30.26S
GUNNISON       FAIR      41  28  60 CALM      30.15S
KREMMLING      FAIR      41  32  70 CALM      30.12S
LEADVILLE      FAIR      36  24  62 CALM      30.24F
MONARCH PASS   FAIR      39  21  48 S12       30.46F
SALIDA         FAIR      46  31  56 SW6       30.23S
SUNLIGHT       FAIR      45  23  42 CALM      30.28F
WILKERSON PASS FAIR      41  23  48 SW6       30.35F
$$

COZ069>075-061000-
...SAN LUIS VALLEY/SANGRE DE CRISTO MOUNTAINS...

CITY           SKY/WX    TMP DP  RH WIND       PRES   REMARKS
ALAMOSA        FAIR      46  30  53 CALM      30.14S
LA VETA PASS   FAIR      45  23  42 S12G18    30.28S
SAGUACHE       FAIR      41  30  65 NW6       30.16S
$$

COZ035-036-038>040-061000-
...NORTHERN COLORADO FRONT RANGE...

CITY           SKY/WX    TMP DP  RH WIND       PRES   REMARKS
DENVER INTL AP MOCLDY    52  39  61 S13       29.97F
DMNS CITY PARK   N/A     56  40  53 SE8       29.97F
AURORA         FAIR      52  41  66 S9        29.99F
FRONT RANGE AP NOT AVBL
ERIE MUNI ARPT FAIR      48  42  80 CALM      29.97F
BOULDER MUN AP FAIR      55  36  47 CALM      29.97F
CENTENNIAL     FAIR      54  39  57 S10       30.00F
BROOMFIELD     FAIR      55  34  44 W3        29.99F
FORT COLLINS   FAIR      52  39  62 N7        29.99S
LONGMONT       FAIR      51  41  67 CALM      29.99F
$$

COZ041-046-047-076>085-087-088-061000-
...PIKES PEAK/PALMER DIVIDE AND SOUTHERN FOOTHILLS...

CITY           SKY/WX    TMP DP  RH WIND       PRES   REMARKS
COLO. SPRINGS  MOCLDY    49  39  68 NE10      30.05F
A. F. ACADEMY  FAIR      45  37  76 N8        30.05F
SCHRIEVER AFB  NOT AVBL
ELLICOTT       FAIR     N/A N/A N/A E12       30.03F
FALCON         NOT AVBL
FORT CARSON    FAIR      49  39  68 NW9       30.02F
LIMON          FAIR      45  42  89 SE5       30.02F
MONUMENT HILL  FAIR      45  36  70 S10       30.09F
TRINIDAD       FAIR      64  22  20 SW18      30.02F
$$

COZ042>045-048>051-090-091-061000-
...NORTHEAST COLORADO...

CITY           SKY/WX    TMP DP  RH WIND       PRES   REMARKS
GREELEY ARPT   FAIR      52  43  71 E6        29.96F
AKRON          FAIR      52  44  74 SE13      29.98F
BURLINGTON     FAIR      54  45  71 S16       30.01F
WRAY           NOT AVBL
STERLING       FAIR      61  45  55 S16       29.95F
HOLYOKE        NOT AVBL
FORT MORGAN    FAIR      55  42  62 CALM      29.99F
$$

COZ086-089-092>099-061000-
...SOUTHEAST COLORADO...

CITY           SKY/WX    TMP DP  RH WIND       PRES   REMARKS
PUEBLO         FAIR      52  42  69 SW7       29.98R
LA JUNTA       FAIR      51  45  79 NE3       29.95F
LAMAR          FAIR      51  46  83 E10       29.95F
SPRINGFIELD      N/A     53  40  61 S17       30.00F
$$



USA.gov is the U.S. government's official web portal to all federal, state and local government web resources and services.